Weather in Zonovo

Russia / Novosibirsk Oblast     55°43′49″N   79°19′37″E
temp.,
°C
wind,
m/s
gust,
m/s
humid.,
%
clouds,
%
prec.,
mm/h
press.,
hPa
HPBL,
m
28 february, sun
sun2801:00−31ssw349967 0.0 103649
04:00−31s349969 0.0 103533
07:00−31sse349970 0.0 103536
10:00−29se469764 0.0 1033129
13:00−23se479475 0.0 1030261
16:00−20ese5891100 0.0 1028336
19:00−19ese599399 0.0 1025312
22:00−20e599793 0.1 1022205
1 march, mon
mon101:00−18e6119697 0.1 1019270
04:00−15e61195100 0.3 1015310
07:00−14ene71195100 1.1 1012344
10:00−13ene71294100 0.5 1009358
13:00−12ene71194100 0.9 1008383
16:00−10ne71094100 0.6 1007436
19:00−11ne61094100 1.3 1008419
22:00−14ne5109397 0.2 1010350
2 march, tue
tue201:00−16nne489589 0.3 1012202
04:00−18nne349790 0.1 101490
07:00−18nne239792 0.1 101630
10:00−17ne229690 0.1 1017106
13:00−14se118995 0.2 1017295
16:00−13s2288100 0.1 1016371
19:00−14s1196100 0.3 101620
22:00−15sse119698 0.1 101620
3 march, wed
wed301:00−16s129693 0.2 101620
04:00−17s119790 0.1 101520
07:00−17se119795 0.3 101620
10:00−15sse119592 0.1 101662
13:00−12ssw118691 0.2 1016388
16:00−11sw2386100 0.1 1017494
19:00−14ssw2394100 0.1 101824
22:00−17ssw349797 0.0 101948
4 march, thu
thu401:00−19s479969 0.0 102091
04:00−20sse479875 0.0 1019132
07:00−17sse599483 0.0 1019260
10:00−15sse61293100 0.0 1017357
13:00−11sse71290100 0.0 1016435
16:00−9sse71288100 0.0 1014522
19:00−9sse71390100 0.1 1012459
22:00−10sse61491100 0.1 1010372